Simultaneous Nadir Overpasses (SNOs) Predictions

Prediction of SNOs between METOP-A and NOAA-19 Satellite Orbit:

Table of predicted SNOs for the next 14.0 days since TLE Epoch: 1/4/2013
Index Date (METOP-A) Time (METOP-A) Lat,Lon (METOP-A) SZA (METOP-A ) Date (NOAA-19) Time (NOAA-19) Lat,Lon (NOAA-19) SZA (NOAA-19 ) Distance(km) Time Diff (sec)
1 01/09/2013 14:17:55 73.34, -41.67 95.46 01/09/2013 14:16:48 73.33, -41.73 95.46 2.33 67
2 01/09/2013 15:08:37 -73.32, 125.61 84.57 01/09/2013 15:07:44 -73.33, 125.54 84.55 2.84 53
3 01/09/2013 15:59:18 73.26, -67.17 95.38 01/09/2013 15:58:52 73.29, -67.16 95.41 2.75 26
4 01/09/2013 16:49:59 -73.29, 100.21 84.61 01/09/2013 16:49:48 -73.29, 100.11 84.60 3.34 11
5 01/09/2013 17:40:40 73.24, -92.57 95.35 01/09/2013 17:40:56 73.25, -92.58 95.35 0.99 16
6 01/09/2013 18:31:22 -73.22, 74.71 84.68 01/09/2013 18:31:51 -73.20, 74.80 84.71 3.46 29
7 01/09/2013 19:22:02 73.21,-117.96 95.32 01/09/2013 19:23:00 73.21,-118.01 95.30 1.84 58
8 01/09/2013 20:12:44 -73.19, 49.32 84.72 01/09/2013 20:13:56 -73.21, 49.26 84.71 2.42 72




NCC Satellite Simultaneous Nadir Overpasses (SNOs) Prediction Service
